Location: Fort Wayne
(41.1310°N, 85.1290°W)
Time: 20:32:45
(UTC-05:00)

Vanguard 3 - Visible Passes

Search period start: 22 December 2014 00:00
Search period end: 01 January 2015 00:00
Orbit: 508 x 3276 km, 33.3° (Epoch: 20 December)

Date Brightness Start Highest point End Pass type
(mag) Time Alt. Az. Time Alt. Az. Time Alt. Az.
22 Dec 8.7 06:16:29 10° SSW 06:19:20 17° SSE 06:21:52 10° ESE visible
23 Dec 9.2 05:07:58 13° SSE 05:07:58 13° SSE 05:09:45 10° SE visible
23 Dec 8.2 07:15:33 10° SW 07:18:50 25° S 07:21:53 10° ESE visible
24 Dec 8.4 06:04:55 15° SSW 06:07:16 22° S 06:10:15 10° ESE visible
25 Dec 9.1 04:57:02 16° SE 04:57:02 16° SE 04:58:38 10° ESE visible
25 Dec 8.0 07:03:10 10° WSW 07:06:46 27° S 07:09:55 10° ESE visible
26 Dec 8.2 05:53:51 23° SSW 05:55:11 26° S 05:58:32 10° ESE visible
27 Dec 9.2 04:45:52 17° SE 04:45:52 17° SE 04:47:10 10° ESE visible
27 Dec 7.9 06:50:43 10° WSW 06:54:42 29° S 06:57:57 10° ESE visible
28 Dec 8.0 05:42:35 30° S 05:43:05 31° S 05:46:45 10° ESE visible
29 Dec 9.4 04:34:32 16° ESE 04:34:32 16° ESE 04:35:32 10° ESE visible
29 Dec 7.9 06:39:15 14° WSW 06:42:35 30° S 06:45:58 10° SE visible
30 Dec 8.0 05:31:10 35° S 05:31:10 35° S 05:34:55 10° ESE visible
31 Dec 9.6 04:23:03 14° ESE 04:23:03 14° ESE 04:23:47 10° ESE visible
31 Dec 8.0 06:27:46 19° WSW 06:30:26 30° SSW 06:33:58 10° SE visible
